Time,TemperatureF,DewpointF,PressureIn,WindDirection,WindDirectionDegrees,WindSpeedMPH,WindSpeedGustMPH,Humidity,HourlyPrecipIn,Conditions,Clouds,dailyrainin,SoftwareType,DateUTC
2013-07-01 00:01:00,77.0,76.0,29.81,ESE,112,0.0,-999.0,96,-99.99,,,-99.99,,2013-07-01 04:01:00,
2013-07-01 00:11:00,77.0,76.0,29.81,ESE,111,0.0,-999.0,96,-99.99,,,-99.99,,2013-07-01 04:11:00,
2013-07-01 00:22:00,77.0,76.0,29.81,ESE,111,0.0,-999.0,96,-99.99,,,-99.99,,2013-07-01 04:22:00,
2013-07-01 00:32:00,77.0,76.0,29.81,ESE,111,0.0,-999.0,96,-99.99,,,-99.99,,2013-07-01 04:32:00,
2013-07-01 00:43:00,77.0,76.0,29.81,ESE,111,0.0,-999.0,96,-99.99,,,-99.99,,2013-07-01 04:43:00,
2013-07-01 00:53:00,77.0,76.0,29.81,SE,133,0.0,-999.0,96,-99.99,,,-99.99,,2013-07-01 04:53:00,
2013-07-01 01:02:00,77.0,76.0,29.81,South,188,0.0,-999.0,96,-99.99,,,-99.99,,2013-07-01 05:02:00,
2013-07-01 01:11:00,77.0,76.0,29.82,South,187,0.0,-999.0,96,-99.99,,,-99.99,,2013-07-01 05:11:00,
2013-07-01 01:22:00,77.0,76.0,29.82,South,187,0.0,-999.0,96,-99.99,,,-99.99,,2013-07-01 05:22:00,
2013-07-01 01:33:00,77.0,76.0,29.82,South,175,0.0,-999.0,96,-99.99,,,-99.99,,2013-07-01 05:33:00,
2013-07-01 01:42:00,77.0,76.0,29.83,South,184,0.0,-999.0,96,-99.99,,,-99.99,,2013-07-01 05:42:00,
2013-07-01 01:52:00,77.0,76.0,29.83,South,184,0.0,-999.0,96,-99.99,,,-99.99,,2013-07-01 05:52:00,
2013-07-01 02:02:00,77.0,76.0,29.83,South,185,0.0,-999.0,96,-99.99,,,-99.99,,2013-07-01 06:02:00,
2013-07-01 02:12:00,77.0,76.0,29.82,South,190,0.0,-999.0,96,-99.99,,,-99.99,,2013-07-01 06:12:00,
2013-07-01 02:24:00,77.0,76.0,29.82,South,190,0.0,-999.0,96,-99.99,,,-99.99,,2013-07-01 06:24:00,
2013-07-01 02:33:00,76.0,75.0,29.82,SSW,201,0.0,-999.0,96,-99.99,,,-99.99,,2013-07-01 06:33:00,
2013-07-01 02:43:00,76.0,75.0,29.82,SSW,201,0.0,-999.0,96,-99.99,,,-99.99,,2013-07-01 06:43:00,
2013-07-01 02:53:00,76.0,75.0,29.82,SSW,201,0.0,-999.0,96,-99.99,,,-99.99,,2013-07-01 06:53:00,
2013-07-01 03:02:00,76.0,75.0,29.81,SSW,200,0.0,-999.0,97,-99.99,,,-99.99,,2013-07-01 07:02:00,
2013-07-01 03:11:00,76.0,75.0,29.80,SSW,201,0.0,-999.0,97,-99.99,,,-99.99,,2013-07-01 07:11:00,
2013-07-01 03:22:00,76.0,75.0,29.80,SSW,201,0.0,-999.0,97,-99.99,,,-99.99,,2013-07-01 07:22:00,
2013-07-01 03:33:00,76.0,75.0,29.81,SSW,200,0.0,-999.0,97,-99.99,,,-99.99,,2013-07-01 07:33:00,
2013-07-01 03:43:00,75.0,74.0,29.81,SSW,201,0.0,-999.0,98,-99.99,,,-99.99,,2013-07-01 07:43:00,
2013-07-01 03:53:00,75.0,74.0,29.81,SSW,201,0.0,-999.0,98,-99.99,,,-99.99,,2013-07-01 07:53:00,
2013-07-01 04:01:00,75.0,74.0,29.81,SSW,201,0.0,-999.0,97,-99.99,,,-99.99,,2013-07-01 08:01:00,
2013-07-01 04:12:00,75.0,74.0,29.82,SSW,200,0.0,-999.0,98,-99.99,,,-99.99,,2013-07-01 08:12:00,
2013-07-01 04:22:00,75.0,74.0,29.82,SSW,200,0.0,-999.0,98,-99.99,,,-99.99,,2013-07-01 08:22:00,
2013-07-01 04:33:00,75.0,74.0,29.82,SSW,200,0.0,-999.0,98,-99.99,,,-99.99,,2013-07-01 08:33:00,
2013-07-01 04:43:00,74.0,73.0,29.82,SSW,201,0.0,-999.0,98,-99.99,,,-99.99,,2013-07-01 08:43:00,
2013-07-01 04:52:00,74.0,73.0,29.82,SSW,201,0.0,-999.0,98,-99.99,,,-99.99,,2013-07-01 08:52:00,
2013-07-01 05:02:00,74.0,73.0,29.82,SSW,201,0.0,-999.0,98,-99.99,,,-99.99,,2013-07-01 09:02:00,
2013-07-01 05:12:00,74.0,73.0,29.83,SSW,201,0.0,-999.0,98,-99.99,,,-99.99,,2013-07-01 09:12:00,
2013-07-01 05:22:00,74.0,73.0,29.83,SSW,201,0.0,-999.0,98,-99.99,,,-99.99,,2013-07-01 09:22:00,
2013-07-01 05:34:00,74.0,73.0,29.83,SSW,201,0.0,-999.0,98,-99.99,,,-99.99,,2013-07-01 09:34:00,
2013-07-01 05:43:00,74.0,73.0,29.84,SSW,200,0.0,-999.0,98,-99.99,,,-99.99,,2013-07-01 09:43:00,
2013-07-01 05:53:00,74.0,73.0,29.84,SSW,200,0.0,-999.0,98,-99.99,,,-99.99,,2013-07-01 09:53:00,
2013-07-01 06:03:00,73.0,72.0,29.84,SSW,201,0.0,-999.0,98,-99.99,,,-99.99,,2013-07-01 10:03:00,
2013-07-01 06:22:00,73.0,72.0,29.85,SSW,200,0.0,-999.0,98,-99.99,,,-99.99,,2013-07-01 10:22:00,
2013-07-01 06:33:00,73.0,72.0,29.85,SSW,201,0.0,-999.0,98,-99.99,,,-99.99,,2013-07-01 10:33:00,
2013-07-01 06:43:00,73.0,72.0,29.85,SSW,201,0.0,-999.0,98,-99.99,,,-99.99,,2013-07-01 10:43:00,
2013-07-01 06:52:00,73.0,72.0,29.85,SSW,201,0.0,-999.0,98,-99.99,,,-99.99,,2013-07-01 10:52:00,
2013-07-01 07:02:00,73.0,72.0,29.86,SSW,200,0.0,-999.0,98,-99.99,,,-99.99,,2013-07-01 11:02:00,
2013-07-01 07:12:00,73.0,72.0,29.87,SSW,202,0.0,-999.0,97,-99.99,,,-99.99,,2013-07-01 11:12:00,
2013-07-01 07:22:00,73.0,72.0,29.87,SSW,202,0.0,-999.0,97,-99.99,,,-99.99,,2013-07-01 11:22:00,
2013-07-01 07:33:00,73.0,72.0,29.87,SSW,202,0.0,-999.0,96,-99.99,,,-99.99,,2013-07-01 11:33:00,
2013-07-01 07:43:00,74.0,73.0,29.88,SSW,194,0.0,-999.0,96,-99.99,,,-99.99,,2013-07-01 11:43:00,
2013-07-01 07:52:00,74.0,73.0,29.88,SSW,194,0.0,-999.0,96,-99.99,,,-99.99,,2013-07-01 11:52:00,
2013-07-01 08:01:00,74.0,73.0,29.87,SSW,194,0.0,-999.0,96,-99.99,,,-99.99,,2013-07-01 12:01:00,
2013-07-01 08:11:00,74.0,73.0,29.88,South,181,0.0,-999.0,96,-99.99,,,-99.99,,2013-07-01 12:11:00,
2013-07-01 08:22:00,74.0,73.0,29.88,South,181,0.0,-999.0,96,-99.99,,,-99.99,,2013-07-01 12:22:00,
2013-07-01 08:33:00,74.0,72.0,29.88,South,173,0.0,-999.0,95,-99.99,,,-99.99,,2013-07-01 12:33:00,
2013-07-01 08:43:00,75.0,73.0,29.88,ESE,103,0.0,-999.0,95,-99.99,,,-99.99,,2013-07-01 12:43:00,
2013-07-01 08:53:00,75.0,73.0,29.88,ESE,103,0.0,-999.0,95,-99.99,,,-99.99,,2013-07-01 12:53:00,
2013-07-01 09:02:00,75.0,73.0,29.88,SSW,210,0.0,-999.0,94,-99.99,,,-99.99,,2013-07-01 13:02:00,
2013-07-01 09:23:00,76.0,74.0,29.88,SSE,158,1.0,-999.0,93,-99.99,,,-99.99,,2013-07-01 13:23:00,
2013-07-01 09:53:00,78.0,74.0,29.88,South,179,1.0,-999.0,89,-99.99,,,-99.99,,2013-07-01 13:53:00,
2013-07-01 10:22:00,78.0,75.0,29.89,South,179,0.0,-999.0,90,-99.99,,,-99.99,,2013-07-01 14:22:00,
2013-07-01 10:34:00,78.0,74.0,29.88,South,169,1.0,-999.0,89,-99.99,,,-99.99,,2013-07-01 14:34:00,
2013-07-01 10:53:00,77.0,74.0,29.89,SE,127,1.0,-999.0,89,-99.99,,,-99.99,,2013-07-01 14:53:00,
2013-07-01 11:02:00,77.0,74.0,29.89,SE,140,0.0,-999.0,91,-99.99,,,-99.99,,2013-07-01 15:02:00,
2013-07-01 11:23:00,77.0,74.0,29.89,SSW,198,1.0,-999.0,90,-99.99,,,-99.99,,2013-07-01 15:23:00,
2013-07-01 11:34:00,78.0,74.0,29.89,South,187,2.0,-999.0,89,-99.99,,,-99.99,,2013-07-01 15:34:00,
2013-07-01 11:52:00,78.0,74.0,29.89,SSE,154,1.0,-999.0,89,-99.99,,,-99.99,,2013-07-01 15:52:00,
2013-07-01 12:01:00,78.0,74.0,29.89,SSW,200,1.0,-999.0,88,-99.99,,,-99.99,,2013-07-01 16:01:00,
2013-07-01 12:11:00,78.0,74.0,29.90,SSW,207,0.0,-999.0,89,-99.99,,,-99.99,,2013-07-01 16:11:00,
2013-07-01 12:22:00,78.0,74.0,29.90,SSW,207,0.0,-999.0,89,-99.99,,,-99.99,,2013-07-01 16:22:00,
2013-07-01 12:33:00,78.0,74.0,29.89,South,188,1.0,-999.0,89,-99.99,,,-99.99,,2013-07-01 16:33:00,
2013-07-01 12:44:00,79.0,76.0,29.89,SSW,205,0.0,-999.0,91,-99.99,,,-99.99,,2013-07-01 16:44:00,
2013-07-01 12:53:00,79.0,76.0,29.89,SSW,205,0.0,-999.0,91,-99.99,,,-99.99,,2013-07-01 16:53:00,
2013-07-01 13:02:00,79.0,75.0,29.89,South,174,1.0,-999.0,89,-99.99,,,-99.99,,2013-07-01 17:02:00,
2013-07-01 13:23:00,79.0,76.0,29.88,South,179,0.0,-999.0,90,-99.99,,,-99.99,,2013-07-01 17:23:00,
2013-07-01 13:34:00,79.0,76.0,29.88,South,179,0.0,-999.0,90,-99.99,,,-99.99,,2013-07-01 17:34:00,
2013-07-01 13:43:00,78.0,76.0,29.88,East,101,0.0,-999.0,93,-99.99,,,-99.99,,2013-07-01 17:43:00,
2013-07-01 13:53:00,78.0,76.0,29.88,East,101,0.0,-999.0,93,-99.99,,,-99.99,,2013-07-01 17:53:00,
2013-07-01 14:02:00,78.0,76.0,29.88,SSW,196,1.0,-999.0,94,-99.99,,,-99.99,,2013-07-01 18:02:00,
2013-07-01 14:11:00,78.0,76.0,29.88,SSW,196,1.0,-999.0,94,-99.99,,,-99.99,,2013-07-01 18:11:00,
2013-07-01 14:22:00,78.0,75.0,29.88,SE,130,1.0,-999.0,91,-99.99,,,-99.99,,2013-07-01 18:22:00,
2013-07-01 14:33:00,80.0,76.0,29.88,South,188,1.0,-999.0,88,-99.99,,,-99.99,,2013-07-01 18:33:00,
2013-07-01 14:43:00,80.0,76.0,29.88,SE,141,1.0,-999.0,87,-99.99,,,-99.99,,2013-07-01 18:43:00,
2013-07-01 14:53:00,80.0,76.0,29.88,SE,141,1.0,-999.0,87,-99.99,,,-99.99,,2013-07-01 18:53:00,
2013-07-01 15:02:00,80.0,76.0,29.88,South,185,1.0,-999.0,87,-99.99,,,-99.99,,2013-07-01 19:02:00,
2013-07-01 15:22:00,81.0,76.0,29.88,SE,128,2.0,-999.0,84,-99.99,,,-99.99,,2013-07-01 19:22:00,
2013-07-01 15:34:00,82.0,77.0,29.88,ESE,123,1.0,-999.0,85,-99.99,,,-99.99,,2013-07-01 19:34:00,
2013-07-01 15:44:00,82.0,77.0,29.88,South,186,2.0,-999.0,85,-99.99,,,-99.99,,2013-07-01 19:44:00,
2013-07-01 15:52:00,82.0,77.0,29.88,South,186,2.0,-999.0,85,-99.99,,,-99.99,,2013-07-01 19:52:00,
2013-07-01 16:02:00,82.0,77.0,29.88,SW,217,2.0,-999.0,84,-99.99,,,-99.99,,2013-07-01 20:02:00,
2013-07-01 16:11:00,82.0,77.0,29.88,SW,217,2.0,-999.0,84,-99.99,,,-99.99,,2013-07-01 20:11:00,
2013-07-01 16:22:00,83.0,77.0,29.88,SSW,192,2.0,-999.0,83,-99.99,,,-99.99,,2013-07-01 20:22:00,
2013-07-01 16:34:00,83.0,76.0,29.88,ESE,114,2.0,-999.0,80,-99.99,,,-99.99,,2013-07-01 20:34:00,
2013-07-01 16:43:00,82.0,76.0,29.88,SSE,156,1.0,-999.0,83,-99.99,,,-99.99,,2013-07-01 20:43:00,
2013-07-01 16:52:00,82.0,76.0,29.88,SSE,156,1.0,-999.0,83,-99.99,,,-99.99,,2013-07-01 20:52:00,
2013-07-01 17:02:00,82.0,77.0,29.88,SSW,205,0.0,-999.0,84,-99.99,,,-99.99,,2013-07-01 21:02:00,
2013-07-01 17:11:00,82.0,77.0,29.88,SSW,205,0.0,-999.0,84,-99.99,,,-99.99,,2013-07-01 21:11:00,
2013-07-01 17:24:00,82.0,76.0,29.88,SE,129,0.0,-999.0,83,-99.99,,,-99.99,,2013-07-01 21:24:00,
2013-07-01 17:34:00,82.0,77.0,29.88,ESE,115,1.0,-999.0,84,-99.99,,,-99.99,,2013-07-01 21:34:00,
2013-07-01 17:43:00,82.0,77.0,29.89,SW,223,1.0,-999.0,85,-99.99,,,-99.99,,2013-07-01 21:43:00,
2013-07-01 17:53:00,82.0,77.0,29.89,SW,223,1.0,-999.0,85,-99.99,,,-99.99,,2013-07-01 21:53:00,
2013-07-01 18:01:00,81.0,76.0,29.89,ESE,117,1.0,-999.0,85,-99.99,,,-99.99,,2013-07-01 22:01:00,
2013-07-01 18:24:00,81.0,76.0,29.89,SSE,165,2.0,-999.0,85,-99.99,,,-99.99,,2013-07-01 22:24:00,
2013-07-01 18:33:00,81.0,76.0,29.89,SSW,192,2.0,-999.0,84,-99.99,,,-99.99,,2013-07-01 22:33:00,
2013-07-01 18:43:00,81.0,76.0,29.89,South,190,2.0,-999.0,85,-99.99,,,-99.99,,2013-07-01 22:43:00,
2013-07-01 18:53:00,81.0,76.0,29.89,South,190,2.0,-999.0,85,-99.99,,,-99.99,,2013-07-01 22:53:00,
2013-07-01 19:01:00,81.0,76.0,29.90,SSW,198,1.0,-999.0,85,-99.99,,,-99.99,,2013-07-01 23:01:00,
2013-07-01 19:22:00,80.0,75.0,29.90,South,179,2.0,-999.0,86,-99.99,,,-99.99,,2013-07-01 23:22:00,
2013-07-01 19:33:00,80.0,76.0,29.91,South,172,2.0,-999.0,88,-99.99,,,-99.99,,2013-07-01 23:33:00,
2013-07-01 19:44:00,79.0,75.0,29.91,SE,146,1.0,-999.0,88,-99.99,,,-99.99,,2013-07-01 23:44:00,
2013-07-01 19:53:00,79.0,75.0,29.91,SE,146,1.0,-999.0,88,-99.99,,,-99.99,,2013-07-01 23:53:00,
2013-07-01 20:01:00,79.0,75.0,29.91,ESE,118,1.0,-999.0,89,-99.99,,,-99.99,,2013-07-02 00:01:00,
2013-07-01 20:12:00,79.0,76.0,29.91,SW,232,1.0,-999.0,90,-99.99,,,-99.99,,2013-07-02 00:12:00,
2013-07-01 20:22:00,79.0,76.0,29.91,SW,232,1.0,-999.0,90,-99.99,,,-99.99,,2013-07-02 00:22:00,
2013-07-01 20:34:00,79.0,76.0,29.91,South,188,1.0,-999.0,90,-99.99,,,-99.99,,2013-07-02 00:34:00,
2013-07-01 20:43:00,79.0,76.0,29.91,South,188,1.0,-999.0,90,-99.99,,,-99.99,,2013-07-02 00:43:00,
2013-07-01 20:53:00,79.0,76.0,29.91,South,188,1.0,-999.0,90,-99.99,,,-99.99,,2013-07-02 00:53:00,
2013-07-01 21:01:00,78.0,74.0,29.91,South,172,1.0,-999.0,89,-99.99,,,-99.99,,2013-07-02 01:01:00,
2013-07-01 21:22:00,78.0,74.0,29.92,SSW,192,1.0,-999.0,89,-99.99,,,-99.99,,2013-07-02 01:22:00,
2013-07-01 21:33:00,78.0,74.0,29.92,SE,124,1.0,-999.0,89,-99.99,,,-99.99,,2013-07-02 01:33:00,
2013-07-01 21:43:00,77.0,74.0,29.93,SE,133,0.0,-999.0,90,-99.99,,,-99.99,,2013-07-02 01:43:00,
2013-07-01 21:53:00,77.0,74.0,29.93,SE,133,0.0,-999.0,90,-99.99,,,-99.99,,2013-07-02 01:53:00,
2013-07-01 22:02:00,77.0,74.0,29.93,SSW,195,0.0,-999.0,91,-99.99,,,-99.99,,2013-07-02 02:02:00,
2013-07-01 22:12:00,77.0,74.0,29.93,SSW,195,0.0,-999.0,91,-99.99,,,-99.99,,2013-07-02 02:12:00,
2013-07-01 22:22:00,77.0,74.0,29.94,SSE,156,0.0,-999.0,92,-99.99,,,-99.99,,2013-07-02 02:22:00,
2013-07-01 22:34:00,77.0,74.0,29.94,SSW,196,1.0,-999.0,92,-99.99,,,-99.99,,2013-07-02 02:34:00,
2013-07-01 22:43:00,77.0,75.0,29.94,ESE,114,1.0,-999.0,93,-99.99,,,-99.99,,2013-07-02 02:43:00,
2013-07-01 22:53:00,77.0,75.0,29.94,ESE,114,1.0,-999.0,93,-99.99,,,-99.99,,2013-07-02 02:53:00,
2013-07-01 23:02:00,77.0,75.0,29.94,South,188,0.0,-999.0,93,-99.99,,,-99.99,,2013-07-02 03:02:00,
2013-07-01 23:12:00,77.0,75.0,29.94,South,188,0.0,-999.0,93,-99.99,,,-99.99,,2013-07-02 03:12:00,
2013-07-01 23:53:00,77.0,75.0,29.95,SSE,152,0.0,-999.0,94,-99.99,,,-99.99,,2013-07-02 03:53:00,